星链-5188 (STARLINK-5188 )

导读

STARLINK-5188是美国太空探索技术公司Starlink(星链)计划中的一颗卫星,于2022年10月20日发射升空。星链计划旨在搭建全球卫星互联网系统,为全球各地提供高速互联网服务,该卫星作为星链星座组网的组成部分,服务于系统全球覆盖的组网目标。

Basic Information
目录编号:
54096
目录名称:
STARLINK-5188
国际标识:
2022-136AX
轨道中心:
EARTH
卫星名称:
星链-5188
卫星全名:
星链-5188 (STARLINK-5188 )
卫星状态:
在轨 (已飞行1336 天)
发射日期:
2022-10-20 UTC
国别 :
美国 (US)
星等 :
--
Orbit Information
数据来源 国际轨道数据 AOE轨道数据
星历时间 2026-06-17T07:04:03+0800
9小时前
查看轨道信息
2026-06-16T06:00:00+0800
1天前
查看轨道信息
半长轴 6917.891km 6917.907km
偏心率 0.0001171 0.000133
轨道倾角 53.160° 53.157°
近地点辐角 85.041° 90.462°
升交点赤经 248.168° 252.865°
平近点角 275.072° 353.074°
近地点 538.943km 538.849km
远地点 540.565km 540.691km
周期 95.438分钟 95.438分钟
每日圈数 15.088367 15.088313
Detailed Information
固有亮度:
5
最大亮度:
2.5
卫星平台:
Starlink v1.5
覆盖范围:
全球
运营商:
太空探索技术公司
运营商所在国:
美国
制造商(研发单位):
太空探索技术公司
制造商所在国:
美国
使用方式:
暂无
Satellite Introduction
星链(Starlink)计划是由太空探索技术公司(SpaceX)提出的一个巨型低轨卫星互联网星座项目,计划在2019年至2024年间在太空搭建由约1.2万颗卫星组成的“星链”网络,其中1584颗将部署在地球上空550千米处的近地轨道,并从2020年开始工作。该卫星仍在工作。
2D Orbit Map
3D Orbit Map
Orbit Altitude Analysis Chart
Orbit Inclination Analysis Chart
Orbit Comprehensive Analysis Chart
View Comprehensive Chart